TimeEDT,TemperatureF,Dew PointF,Humidity,Sea Level PressureIn,VisibilityMPH,Wind Direction,Wind SpeedMPH,Gust SpeedMPH,PrecipitationIn,Events,Conditions,WindDirDegrees,DateUTC
12:53 AM,73.9,69.1,85,30.03,10.0,Calm,Calm,-,N/A,,Clear,0,2013-06-24 04:53:00
1:53 AM,75.9,69.1,79,30.02,10.0,Calm,Calm,-,N/A,,Clear,0,2013-06-24 05:53:00
2:53 AM,75.9,69.1,79,30.01,10.0,Calm,Calm,-,N/A,,Mostly Cloudy,0,2013-06-24 06:53:00
3:53 AM,75.0,69.1,82,30.01,10.0,Calm,Calm,-,N/A,,Mostly Cloudy,0,2013-06-24 07:53:00
4:53 AM,75.0,69.1,82,30.00,10.0,South,3.5,-,N/A,,Partly Cloudy,190,2013-06-24 08:53:00
5:53 AM,75.0,70.0,84,30.01,10.0,SW,3.5,-,N/A,,Clear,220,2013-06-24 09:53:00
6:53 AM,75.9,69.1,79,30.02,10.0,SW,6.9,-,N/A,,Clear,220,2013-06-24 10:53:00
7:53 AM,78.1,69.1,74,30.03,10.0,SW,9.2,-,N/A,,Clear,230,2013-06-24 11:53:00
8:53 AM,80.1,69.1,69,30.03,10.0,SW,8.1,-,N/A,,Clear,230,2013-06-24 12:53:00
9:53 AM,82.0,69.1,65,30.02,10.0,South,5.8,-,N/A,,Clear,170,2013-06-24 13:53:00
10:53 AM,84.9,69.1,59,30.02,10.0,West,5.8,-,N/A,,Clear,260,2013-06-24 14:53:00
11:53 AM,87.1,69.1,55,30.01,10.0,Calm,Calm,-,N/A,,Clear,0,2013-06-24 15:53:00
12:53 PM,90.0,69.1,50,30.00,10.0,Variable,6.9,-,N/A,,Partly Cloudy,0,2013-06-24 16:53:00
1:53 PM,91.0,68.0,47,29.97,10.0,Variable,6.9,-,N/A,,Clear,0,2013-06-24 17:53:00
2:53 PM,91.9,68.0,45,29.94,10.0,WSW,9.2,-,N/A,,Clear,240,2013-06-24 18:53:00
3:53 PM,91.9,66.9,44,29.91,10.0,WSW,10.4,-,N/A,,Clear,240,2013-06-24 19:53:00
4:53 PM,84.0,66.9,56,29.93,10.0,North,11.5,25.3,N/A,,Mostly Cloudy,350,2013-06-24 20:53:00
5:00 PM,82.4,66.2,58,29.93,10.0,North,11.5,25.3,N/A,,Mostly Cloudy,350,2013-06-24 21:00:00
5:09 PM,80.6,64.4,58,29.94,10.0,NE,9.2,-,N/A,Thunderstorm,Thunderstorm,40,2013-06-24 21:09:00
5:53 PM,79.0,66.9,66,29.94,10.0,East,6.9,-,N/A,,Mostly Cloudy,80,2013-06-24 21:53:00
6:53 PM,78.1,68.0,71,29.94,10.0,Calm,Calm,-,N/A,,Mostly Cloudy,0,2013-06-24 22:53:00
7:34 PM,73.4,68.0,83,30.00,1.8,South,5.8,17.3,0.08,Rain,Rain,190,2013-06-24 23:34:00
7:38 PM,73.4,69.8,88,30.02,3.0,SSW,5.8,-,0.08,Rain,Light Rain,210,2013-06-24 23:38:00
7:53 PM,73.0,68.0,84,29.99,9.0,SSE,8.1,-,0.08,,Mostly Cloudy,150,2013-06-24 23:53:00
8:53 PM,72.0,68.0,87,29.98,7.0,Calm,Calm,-,N/A,,Clear,0,2013-06-25 00:53:00
9:53 PM,71.1,68.0,90,29.98,6.0,Calm,Calm,-,N/A,,Clear,0,2013-06-25 01:53:00
10:53 PM,70.0,68.0,93,29.98,5.0,Calm,Calm,-,N/A,,Clear,0,2013-06-25 02:53:00
11:53 PM,69.1,66.9,93,29.98,4.0,SSE,3.5,-,N/A,,Clear,160,2013-06-25 03:53:00